TimeEST,TemperatureF,Dew PointF,Humidity,Sea Level PressureIn,VisibilityMPH,Wind Direction,Wind SpeedMPH,Gust SpeedMPH,PrecipitationIn,Events,Conditions,WindDirDegrees,DateUTC
12:04 AM,23.0,19.9,88,30.00,2.5,South,4.6,-,0.00,Snow,Light Snow,170,2014-02-16 05:04:00
12:12 AM,23.0,19.9,88,30.00,4.0,South,4.6,-,0.00,Snow,Light Snow,170,2014-02-16 05:12:00
12:53 AM,23.0,19.9,88,30.01,4.0,SSE,8.1,-,0.00,,Overcast,160,2014-02-16 05:53:00
1:53 AM,23.0,19.9,88,30.02,3.0,South,3.5,-,0.00,Snow,Light Snow,170,2014-02-16 06:53:00
2:53 AM,23.0,19.9,88,30.01,4.0,South,3.5,-,0.00,,Overcast,170,2014-02-16 07:53:00
3:53 AM,25.0,19.9,81,29.99,6.0,SSW,3.5,-,N/A,,Haze,200,2014-02-16 08:53:00
4:26 AM,26.1,19.9,78,29.95,6.0,SW,5.8,-,N/A,,Haze,230,2014-02-16 09:26:00
4:42 AM,26.1,19.9,78,29.95,7.0,SW,6.9,-,N/A,,Overcast,230,2014-02-16 09:42:00
4:53 AM,26.1,19.9,78,29.98,7.0,West,6.9,-,N/A,,Overcast,260,2014-02-16 09:53:00
5:04 AM,26.1,19.9,78,29.95,7.0,WSW,6.9,-,N/A,,Overcast,240,2014-02-16 10:04:00
5:53 AM,27.0,21.0,78,29.99,7.0,West,8.1,-,N/A,,Overcast,270,2014-02-16 10:53:00
6:53 AM,27.0,21.0,78,30.00,7.0,West,5.8,-,N/A,,Overcast,270,2014-02-16 11:53:00
7:53 AM,27.0,21.0,78,30.04,5.0,West,6.9,-,N/A,,Haze,280,2014-02-16 12:53:00
8:53 AM,27.0,21.0,78,30.07,6.0,WNW,8.1,-,N/A,,Haze,290,2014-02-16 13:53:00
9:53 AM,27.0,21.0,78,30.09,6.0,NW,5.8,-,N/A,,Haze,310,2014-02-16 14:53:00
10:53 AM,28.9,21.0,72,30.11,6.0,NW,5.8,-,N/A,,Haze,310,2014-02-16 15:53:00
11:53 AM,30.0,19.9,66,30.14,8.0,NW,10.4,-,N/A,,Overcast,310,2014-02-16 16:53:00
12:53 PM,30.0,19.9,66,30.16,8.0,NNW,6.9,-,N/A,,Overcast,340,2014-02-16 17:53:00
1:50 PM,30.2,19.4,64,30.13,10.0,NNE,11.5,-,N/A,,Scattered Clouds,20,2014-02-16 18:50:00
1:53 PM,30.0,19.9,66,30.16,10.0,North,12.7,-,N/A,,Partly Cloudy,360,2014-02-16 18:53:00
2:53 PM,30.0,19.0,64,30.18,10.0,North,8.1,-,N/A,,Partly Cloudy,360,2014-02-16 19:53:00
3:53 PM,28.0,17.1,63,30.19,10.0,North,9.2,-,N/A,,Clear,10,2014-02-16 20:53:00
4:53 PM,28.0,16.0,61,30.21,10.0,NNE,8.1,-,N/A,,Clear,20,2014-02-16 21:53:00
5:53 PM,25.0,15.1,66,30.23,10.0,North,6.9,-,N/A,,Clear,10,2014-02-16 22:53:00
6:53 PM,23.0,12.9,65,30.26,10.0,NNE,6.9,-,N/A,,Clear,20,2014-02-16 23:53:00
7:53 PM,21.0,12.0,68,30.30,10.0,NNE,5.8,-,N/A,,Clear,20,2014-02-17 00:53:00
8:53 PM,19.9,12.0,71,30.29,10.0,NNE,4.6,-,N/A,,Clear,30,2014-02-17 01:53:00
9:53 PM,19.0,12.0,74,30.29,10.0,East,3.5,-,N/A,,Clear,80,2014-02-17 02:53:00
10:53 PM,19.0,12.9,77,30.28,8.0,East,6.9,-,N/A,,Clear,90,2014-02-17 03:53:00
11:53 PM,19.0,12.9,77,30.29,7.0,ESE,6.9,-,N/A,,Clear,110,2014-02-17 04:53:00